Location: Newark
(40.3500°N, 15.2333°E)
Time: 15:36:55
(UTC+00:00)

Altair - Pass Details

Date: 21 January 2020
Orbit: 1502 x 1682 km, 47.2° (Epoch: 24 February)

Event Time Altitude Azimuth Distance (km) Brightness Sun altitude
Rises 07:23:14 0° 212° (SSW) 4,858 10.2 9.9°
Reaches altitude 10° 07:26:29 10° 206° (SSW) 3,893 9.8 10.4°
Maximum altitude 07:35:55 48° 136° (SE) 2,090 9.3 11.8°
Drops below altitude 10° 07:45:28 10° 67° (ENE) 3,945 10.1 13.2°
Sets 07:48:46 0° 62° (ENE) 4,928 10.4 13.6°
